Flight Track Log - Related Links

Times and Time Zones

All times are in EDT time to prevent confusion due to time zone crossing. See the FLG3729 flight status page for this flight to view local times or setup timezone preferences in your user account.

Time Position Orientation Groundspeed Altitude Reporting Facility
EDT Latitude Longitude Course Direction KTS MPH feet Rate Location/Type
05:49 42.7297 -73.8081 304° West 153 176 1,600  Level Boston Center
05:50 42.6444 -73.8092 181° South 271 312 3,000 1,527 Climbing Boston Center
05:51 42.6272 -73.8511 241° Southwest 262 302 4,400 3,300 Climbing Boston Center
05:51 42.6392 -73.8908 292° West 270 311 6,300 3,700 Climbing Boston Center
05:52 42.8297 -74.3078 281° West  Level FlightAware Approximate
05:52 42.6678 -73.9281 316° Northwest 262 302 8,100  Level Boston Center
05:53 42.8507 -74.4374 283° West  Level FlightAware Approximate
05:53 42.7208 -74.0086 312° West 267 307 10,600  Level Boston Center
05:54 42.8809 -74.5617 304° West  Level FlightAware Approximate
05:54 42.7781 -74.0892 314° West 293 337 11,900  Level Boston Center
05:55 42.8514 -74.2044 311° West 356 410 13,600 1,700 Climbing Boston Center
05:56 42.8597 -74.3378 275° West 366 421 15,300 1,600 Climbing Boston Center
05:57 42.8819 -74.5028 280° West 400 460 16,800 1,250 Climbing Boston Center
05:58 42.9064 -74.6369 284° West 407 468 17,800 1,150 Climbing Boston Center
05:59 42.9344 -74.8053 283° West 415 478 19,100 1,300 Climbing Boston Center
06:00 42.9603 -74.9594 283° West 415 478 20,400 1,100 Climbing Boston Center
06:01 42.9858 -75.1139 283° West 415 478 21,300 900 Climbing Boston Center
06:02 43.0114 -75.2711 283° West 415 478 22,200 850 Climbing Boston Center
06:03 43.0331 -75.3972 283° West 415 478 23,000 850 Climbing Boston Center
06:04 43.0597 -75.5719 282° West 420 483 23,900 850 Climbing Boston Center
06:05 43.0867 -75.7267 283° West 425 489 24,700 615 Climbing Boston Center
06:07 43.1469 -76.1094 282° West 445 512 25,900 523 Climbing Cleveland Center
06:08 43.1553 -76.2742 274° West 445 512 26,400 500 Climbing Cleveland Center
06:09 43.1425 -76.4400 264° West 440 506 26,900 500 Climbing Cleveland Center
06:10 43.1278 -76.6089 263° West 446 513 27,400 550 Climbing Cleveland Center
06:11 43.1122 -76.7719 263° West 446 513 28,000 300 Climbing Cleveland Center
06:12 43.0969 -76.9408 263° West 446 513 28,000  Level Cleveland Center
06:13 43.0833 -77.1094 264° West 446 513 28,000  Level Cleveland Center
06:14 43.0656 -77.2839 262° West 453 521 28,000  Level Cleveland Center
06:15 43.0494 -77.4550 263° West 458 527 28,000  Level Cleveland Center
06:16 43.0350 -77.6233 263° West 458 527 28,000  Level Cleveland Center
06:17 43.0183 -77.7889 262° West 458 527 28,000  Level Cleveland Center
06:18 43.0014 -77.9572 262° West 452 520 28,000  Level Cleveland Center
06:19 42.9842 -78.1225 262° West 452 520 28,000  Level Cleveland Center
06:20 42.9625 -78.2822 260° West 447 514 28,000  Level Cleveland Center
06:21 42.9239 -78.4453 252° West 447 514 28,000  Level Cleveland Center
06:22 42.8831 -78.6056 251° West 452 520 28,000  Level Cleveland Center
06:23 42.8439 -78.7653 252° West 452 520 28,000  Level Cleveland Center
06:24 42.8047 -78.9306 252° West 452 520 28,000  Level Cleveland Center
06:25 42.7736 -79.0956 256° West 457 526 28,000  Level Cleveland Center
06:26 42.7694 -79.2681 268° West 457 526 28,000  Level Cleveland Center
06:27 42.7672 -79.4378 269° West 457 526 28,000  Level Cleveland Center
06:28 42.7625 -79.6133 268° West 462 532 28,000  Level Cleveland Center
06:29 42.7556 -79.7858 267° West 462 532 28,000  Level Cleveland Center
06:30 42.7461 -79.9556 266° West 462 532 28,000  Level Cleveland Center
06:31 42.7386 -80.1308 267° West 462 532 28,000  Level Cleveland Center
06:32 42.7328 -80.3033 267° West 462 532 28,000  Level Cleveland Center
06:33 42.7228 -80.4561 265° West 462 532 28,000  Level Cleveland Center
06:34 42.7186 -80.6342 268° West 462 532 28,000  Level Cleveland Center
06:35 42.7122 -80.8036 267° West 457 526 28,000 -100 Level Cleveland Center
06:36 42.6972 -80.9731 263° West 457 526 27,800 -350 Descending Cleveland Center
06:37 42.6778 -81.1453 261° West 462 532 27,300 -500 Descending Cleveland Center
06:38 42.6581 -81.3117 261° West 462 532 26,800 -500 Descending Cleveland Center
06:39 42.6381 -81.4806 261° West 462 532 26,300 -1,250 Descending Cleveland Center
06:40 42.6197 -81.6553 262° West 462 532 24,300 -2,150 Descending Cleveland Center
06:41 42.5975 -81.8186 260° West 462 532 22,000 -2,400 Descending Cleveland Center
06:42 42.5789 -81.9789 261° West 450 518 19,500 -2,350 Descending Cleveland Center
06:43 42.5603 -82.1336 261° West 434 499 17,300 -2,700 Descending Cleveland Center
06:43 42.5531 -82.2011 262° West 414 476 15,900 -2,600 Descending Cleveland Center
06:44 42.5414 -82.2881 260° West 424 488 14,700 -2,500 Descending Cleveland Center
06:44 42.5319 -82.3556 259° West 404 465 13,400 -2,500 Descending Cleveland Center
06:45 42.5225 -82.4342 261° West 412 474 12,200 -1,377 Descending Cleveland Center
06:45 42.5153 -82.4958 261° West 385 443 12,000 -200 Descending Cleveland Center
06:46 42.4992 -82.5714 254° West 400 460 12,000  Level Cleveland Center
06:46 42.4775 -82.6325 244° Southwest 372 428 12,000  Level Cleveland Center
06:47 42.4533 -82.6967 243° Southwest 384 442 12,000 -98 Level Cleveland Center
06:47 42.4417 -82.7636 257° West 354 407 11,900 -700 Descending Cleveland Center
06:48 42.4364 -82.8225 263° West 366 421 11,300 -1,418 Descending Cleveland Center
06:48 42.4375 -82.8650 272° West 287 330 10,600 -2,300 Descending Cleveland Center
06:49 42.4342 -82.9322 266° West 328 377 9,000 -2,800 Descending Cleveland Center
06:49 42.4372 -82.9775 275° West 286 329 7,800 -2,500 Descending Cleveland Center
06:50 42.4317 -83.0447 264° West 290 334 6,500 -1,672 Descending Cleveland Center
06:50 42.4228 -83.0725 247° West 245 282 6,100 -1,300 Descending Cleveland Center
06:51 42.4008 -83.1278 242° Southwest 259 298 5,200 -1,180 Descending Cleveland Center
06:51 42.3919 -83.1556 247° West 224 258 4,900 -600 Descending Cleveland Center
06:52 42.3783 -83.1944 245° Southwest 239 275 4,600 -700 Descending Cleveland Center
06:52 42.3694 -83.2222 247° West 185 213 4,200 -1,000 Descending Cleveland Center
06:53 42.3461 -83.2436 214° Southwest 206 237 3,600 -1,082 Descending Cleveland Center
06:53 42.3269 -83.2569 207° Southwest 170 196 3,100 -1,500 Descending Cleveland Center

Login

Don't have an account? Register now (free) for customized features, flight alerts, and more!